Location: Nantong Television Tower
(32.0188°N, 120.8512°E)
Time: 15:58:20
(UTC+08:00)

Vanguard 3 - Visible Passes

Search period start: 23 October 2014 00:00
Search period end: 02 November 2014 00:00
Orbit: 508 x 3278 km, 33.3° (Epoch: 21 October)

Date Brightness Start Highest point End Pass type
(mag) Time Alt. Az. Time Alt. Az. Time Alt. Az.
23 Oct 8.5 03:46:20 21° ESE 03:46:20 21° ESE 03:47:40 10° ESE visible
23 Oct 10.4 19:44:22 10° S 19:51:43 18° SSE 19:51:43 18° SSE visible
23 Oct 11.0 21:56:15 10° SW 21:56:29 11° SW 21:56:29 11° SW visible
24 Oct 7.1 04:43:23 30° SW 04:43:48 31° SSW 04:47:12 10° SE visible
24 Oct 10.6 18:34:51 10° SSE 18:39:42 12° SSE 18:43:59 10° SE visible
24 Oct 10.4 20:42:25 10° SSW 20:48:51 24° SSW 20:48:51 24° SSW visible
25 Oct 9.2 03:35:41 13° ESE 03:35:41 13° ESE 03:36:03 10° ESE visible
25 Oct 8.5 05:42:38 10° SW 05:43:33 11° SSW 05:44:30 10° SSW visible
25 Oct 10.1 19:29:20 10° SSW 19:41:12 25° SSE 19:41:12 25° SSE visible
25 Oct 10.7 21:42:48 10° SW 21:45:58 18° SW 21:45:58 18° SW visible
26 Oct 7.8 04:32:45 22° SSW 04:32:45 22° SSW 04:35:05 10° SSE visible
26 Oct 10.5 18:17:50 10° S 18:27:29 17° SSE 18:33:34 13° ESE visible
26 Oct 10.0 20:28:26 10° SW 20:38:20 34° S 20:38:20 34° S visible
27 Oct 9.9 19:14:46 10° SSW 19:29:02 32° SSE 19:30:40 31° SE visible
27 Oct 10.4 21:29:25 10° WSW 21:35:26 26° SW 21:35:26 26° SW visible
28 Oct 8.6 04:22:10 13° S 04:22:10 13° S 04:22:49 10° S visible
28 Oct 10.4 18:02:23 10° S 18:15:06 23° SE 18:23:00 14° ESE visible
28 Oct 9.6 20:14:36 10° SW 20:27:46 46° S 20:27:46 46° S visible
28 Oct 11.0 22:31:32 10° WSW 22:32:31 12° WSW 22:32:31 12° WSW visible
29 Oct 9.7 19:00:30 10° SSW 19:16:37 39° SSE 19:20:04 35° SE visible
29 Oct 10.1 21:16:05 10° WSW 21:24:50 36° SW 21:24:50 36° SW visible
30 Oct 10.3 17:47:34 10° SSW 18:02:32 29° SE 18:12:21 14° E visible
30 Oct 9.3 20:00:55 10° SW 20:17:06 58° S 20:17:06 58° S visible
30 Oct 10.8 22:18:33 10° WSW 22:21:51 19° W 22:21:51 19° W visible
31 Oct 9.7 18:46:29 10° SW 19:04:03 47° SSE 19:09:21 35° ESE visible
31 Oct 9.8 21:02:48 10° WSW 21:14:06 47° WSW 21:14:06 47° WSW visible
01 Nov 10.4 17:33:11 10° SSW 17:49:49 35° SE 18:01:33 13° E visible
01 Nov 9.2 19:47:21 10° SW 20:05:30 67° SSE 20:06:18 66° SE visible
01 Nov 10.6 22:05:33 10° W 22:11:03 25° W 22:11:03 25° W visible
